Montijo current weather conditions

sailwx.info

Wind from 030 at 8 knots

Air temperature 18.0° C
Dewpoint 17.0° C

Last reported at 2014-Oct-21 05:00 UTC.
Time now 2014-Oct-21 07:16 UTC

Location: N 38°42' W 009°02'.
View on Google Maps.

See reports from other nearby stations

  
Tides and Currents Weather Stations Pressure Air Temp Water Temp Dewpoint Dewpoint Depression Visibility Wind Speed Wind Dir Waves Ship Positions
date/time (UTC)wind fromknots sea level pressurealtimeterstation pressurevisibilityair tempwater tempwave heightnotes
2014-Oct-21 06:00 020 8 18.0
2014-Oct-21 05:00 030 8 18.0
2014-Oct-21 04:00 030 7 18.0
2014-Oct-21 03:00 020 6 18.0
2014-Oct-21 02:00 040 5 18.0
2014-Oct-21 01:00 030 5 19.0
2014-Oct-21 00:00 030 5 20.0
2014-Oct-20 23:00 020 6 21.0
2014-Oct-20 22:00 020 6 20.0
2014-Oct-20 21:00 020 6 20.0
2014-Oct-20 20:00 020 6 21.0
2014-Oct-20 19:00 360 4 22.0
2014-Oct-20 18:00 020 6 24.0
2014-Oct-20 17:00 040 5 28.0
2014-Oct-20 16:00 030 7 29.0
2014-Oct-20 15:00 030 9 29.0
2014-Oct-20 14:00 030 9 29.0
2014-Oct-20 13:00 010 9 26.0
2014-Oct-20 12:00 020 9 25.0
2014-Oct-20 11:00 020 9 23.0
2014-Oct-20 10:00 030 11 22.0
2014-Oct-20 09:00 030 9 20.0
2014-Oct-20 08:00 030 10 18.0
2014-Oct-20 07:00 020 9 18.0
2014-Oct-20 06:00 020 9 18.0
2014-Oct-20 05:00 020 7 18.0
2014-Oct-20 03:00 030 7 19.0
2014-Oct-20 02:00 020 7 19.0
2014-Oct-20 01:00 020 5 19.0
2014-Oct-20 00:00 010 3 19.0
2014-Oct-19 23:00 040 6 19.0
2014-Oct-19 22:00 030 4 20.0
2014-Oct-19 21:00 030 7 21.0
2014-Oct-19 20:00 020 8 22.0
2014-Oct-19 19:00 010 6 22.0
2014-Oct-19 18:00 020 5 23.0
2014-Oct-19 17:00 020 4 26.0
2014-Oct-19 16:00 360 4 28.0
2014-Oct-19 15:00 360 5 28.0
2014-Oct-19 14:00 350 3 27.0
2014-Oct-19 13:00 340 6 25.0
2014-Oct-19 12:00 010 9 23.0
2014-Oct-19 11:00 010 9 22.0
2014-Oct-19 10:00 020 7 20.0
2014-Oct-19 09:00 040 5 19.0
2014-Oct-19 08:00 030 8 5.417.0
2014-Oct-19 07:00 020 7 17.0